Simultaneous Nadir Overpasses (SNOs) Predictions

Prediction of SNOs between AQUA and NPP Satellite Orbit:

Table of predicted SNOs for the next 14.0 days since TLE Epoch: 1/15/2022
Index Date (AQUA) Time (AQUA) Lat,Lon (AQUA) SZA (AQUA ) Date (NPP) Time (NPP) Lat,Lon (NPP) SZA (NPP ) Distance(km) Time Diff (sec)
1 01/17/2022 06:22:10 -76.70, 146.03 62.90 01/17/2022 06:21:51 -76.70, 146.10 62.90 1.86 19
2 01/17/2022 07:11:23 77.28, -44.16 116.43 01/17/2022 07:12:22 77.27, -44.26 116.40 2.42 59
3 01/19/2022 21:49:29 75.81, 91.42 117.62 01/19/2022 21:48:16 75.81, 91.40 117.69 0.43 73
4 01/19/2022 22:38:37 -76.76, -97.84 63.47 01/19/2022 22:38:41 -76.76, -97.89 63.46 1.36 4
5 01/22/2022 14:05:53 76.01,-152.08 116.86 01/22/2022 14:05:03 76.00,-152.17 116.92 2.73 50
6 01/22/2022 14:54:54 -77.28, 19.99 64.62 01/22/2022 14:55:20 -77.29, 20.09 64.67 2.66 26
7 01/25/2022 06:22:06 76.68, -33.99 115.50 01/25/2022 06:21:38 76.69, -33.91 115.51 2.14 28
8 01/25/2022 07:11:16 -77.50, 136.78 65.48 01/25/2022 07:12:05 -77.51, 136.86 65.54 2.08 49
9 01/27/2022 22:38:27 76.99, 83.03 114.50 01/27/2022 22:38:22 77.00, 83.12 114.49 2.48 5



Historial Predications of SNOs between AQUA and NPP
